Weather History for Spokane Felts, WA

Change the Weather History Date:

Sunday, November 11, 2012

  Actual Average Record
Temperature  
Mean Temperature 29 °F 39 °F  
Max Temperature 35 °F 46 °F 63 °F (1999)
Min Temperature 23 °F 32 °F 10 °F (2000)
Degree Days  
Heating Degree Days 36 26  
Month to date heating degree days 240 271  
Since 1 July heating degree days 799 1008  
Cooling Degree Days 0 0  
Month to date cooling degree days 0 0  
Year to date cooling degree days 509 406  
Moisture  
Dew Point 24 °F    
Average Humidity 76    
Maximum Humidity 88    
Minimum Humidity 64    
Precipitation  
Precipitation 0.00 in 0.07 in 0.21 in (2008)
Month to date precipitation 0.73 0.75  
Year to date precipitation 16.32 13.70  
Sea Level Pressure  
Sea Level Pressure 30.30 in    
Wind  
Wind Speed 1 mph (SE)    
Max Wind Speed 8 mph    
Max Gust Speed 9 mph    
Visibility 10 miles    
Events      
T = Trace of Precipitation, MM = Missing Value Source: NWS Daily Summary

Daily Weather History Graph

Daily Weather History Graph

Search for Another Location

Airport:

Trip Planner

Search our weather history database for the weather conditions in past years. The results will help you decide how hot, cold, wet, or windy it might be!

Date:

Astronomy

Nov. 11, 2012 Rise Set
Actual Time 6:49 AM PST 4:16 PM PST
Civil Twilight 6:16 AM PST 4:49 PM PST
Nautical Twilight 5:39 AM PST 5:27 PM PST
Astronomical Twilight 5:02 AM PST 6:03 PM PST
Moon 4:00 AM PST (11/11) 2:49 PM PST (11/11)
Length of Visible Light 10h 33m
Length of Day
9h 27m
Waning Crescent, 6% of the Moon is Illuminated
Nov 11
Waning Crescent
Nov 13
New
Nov 20
First Quarter
Nov 28
Full
Dec 6
Last Quarter

Hourly Weather History & Observations

Time (PST) Temp. Windchill Dew Point Humidity Pressure Visibility Wind Dir Wind Speed Gust Speed Precip Events Conditions
12:10 AM 24.8 °F - 19.4 °F 80% 30.18 in 10.0 mi Calm Calm - N/A   Scattered Clouds
12:23 AM 24.8 °F - 19.4 °F 80% 30.19 in 10.0 mi Calm Calm - N/A   Mostly Cloudy
12:53 AM 26.1 °F - 21.0 °F 81% 30.25 in 10.0 mi Calm Calm - N/A   Mostly Cloudy
1:05 AM 26.6 °F - 21.2 °F 80% 30.19 in 10.0 mi Calm Calm - N/A   Partly Cloudy
1:53 AM 25.0 °F - 21.0 °F 85% 30.27 in 10.0 mi Calm Calm - N/A   Scattered Clouds
2:53 AM 25.0 °F - 21.0 °F 85% 30.27 in 10.0 mi Calm Calm - N/A   Clear
3:25 AM 24.8 °F - 21.2 °F 86% 30.21 in 9.0 mi Calm Calm - N/A   Mostly Cloudy
3:53 AM 25.0 °F - 21.0 °F 85% 30.28 in 9.0 mi Calm Calm - N/A   Mostly Cloudy
4:27 AM 24.8 °F - 19.4 °F 80% 30.23 in 10.0 mi Calm Calm - N/A   Mostly Cloudy
4:53 AM 26.1 °F - 21.0 °F 81% 30.30 in 10.0 mi Calm Calm - N/A   Mostly Cloudy
5:13 AM 26.6 °F - 23.0 °F 86% 30.24 in 10.0 mi Calm Calm - N/A   Overcast
5:30 AM 26.6 °F - 23.0 °F 86% 30.24 in 10.0 mi Calm Calm - N/A   Overcast
5:46 AM 28.4 °F 24.6 °F 24.8 °F 86% 30.24 in 10.0 mi Variable 3.5 mph - N/A   Overcast
6:28 AM 28.4 °F 24.6 °F 24.8 °F 86% 30.25 in 9.0 mi West 3.5 mph - N/A   Overcast
6:53 AM 28.0 °F 24.2 °F 24.1 °F 85% 30.32 in 10.0 mi West 3.5 mph - N/A   Overcast
7:53 AM 28.9 °F - 23.0 °F 78% 30.33 in 10.0 mi Calm Calm - N/A   Overcast
8:53 AM 30.0 °F - 23.0 °F 75% 30.34 in 10.0 mi Calm Calm - N/A   Overcast
9:53 AM 30.9 °F - 24.1 °F 76% 30.36 in 10.0 mi Calm Calm - N/A   Overcast
10:53 AM 32.0 °F - 24.1 °F 73% 30.36 in 10.0 mi Calm Calm - N/A   Overcast
11:53 AM 34.0 °F - 24.1 °F 67% 30.35 in 10.0 mi Calm Calm - N/A   Overcast
12:53 PM 34.0 °F 29.8 °F 25.0 °F 70% 30.35 in 10.0 mi SSE 4.6 mph - N/A   Overcast
1:53 PM 34.0 °F 28.0 °F 25.0 °F 70% 30.35 in 10.0 mi SSE 6.9 mph - N/A   Overcast
2:53 PM 35.1 °F 31.0 °F 25.0 °F 67% 30.37 in 10.0 mi SSE 4.6 mph - N/A   Overcast
3:00 PM 35.6 °F 31.7 °F 24.8 °F 65% 30.31 in 10.0 mi SSE 4.6 mph - N/A   Overcast
3:09 PM 35.6 °F 30.7 °F 24.8 °F 65% 30.31 in 10.0 mi SE 5.8 mph - N/A   Overcast
3:53 PM 34.0 °F 31.0 °F 25.0 °F 70% 30.37 in 10.0 mi ENE 3.5 mph - N/A   Overcast
4:53 PM 34.0 °F 29.8 °F 26.1 °F 73% 30.36 in 10.0 mi ENE 4.6 mph - N/A   Overcast
5:53 PM 34.0 °F - 26.1 °F 73% 30.37 in 10.0 mi Calm Calm - N/A   Overcast
6:15 PM 35.6 °F - 26.6 °F 70% 30.30 in 10.0 mi Calm Calm - N/A   Overcast
6:53 PM 34.0 °F 31.0 °F 26.1 °F 73% 30.36 in 10.0 mi ENE 3.5 mph - N/A   Overcast
7:53 PM 34.0 °F - 27.0 °F 75% 30.35 in 10.0 mi Calm Calm - N/A   Overcast
8:53 PM 34.0 °F - 27.0 °F 75% 30.35 in 10.0 mi Calm Calm - N/A   Overcast
9:53 PM 35.1 °F - 27.0 °F 72% 30.34 in 10.0 mi Calm Calm - N/A   Overcast
10:53 PM 35.1 °F - 28.0 °F 76% 30.32 in 10.0 mi Calm Calm - N/A   Overcast
11:53 PM 35.1 °F - 28.0 °F 76% 30.33 in 10.0 mi Calm Calm - N/A   Overcast